Regional Weather Roundup
Issued by NWS Cleveland, OH

Home | Current Version | Previous Version | Text Only | Print | Product List | Glossary Off
Versions: 1 2 3 4 5 6 7 8 9 10 11 12 13 14 15 16 17 18 19 20 21 22 23 24 25 26 27 28 29 30 31 32 33 34 35 36 37 38 39 40 41 42 43 44 45 46 47 48 49 50

000
ASUS41 KCLE 221610
RWRCLE
OHIO REGIONAL WEATHER ROUNDUP
NATIONAL WEATHER SERVICE WILMINGTON, OH
1200 PM EDT MON SEP 22 2014

NOTE: "FAIR" INDICATES FEW OR NO CLOUDS BELOW 12,000 FEET WITH NO
SIGNIFICANT WEATHER AND/OR OBSTRUCTIONS TO VISIBILITY.

OHZ001>008-015>018-024>027-034-035-043-044-221700-
   NORTHWEST OHIO

CITY           SKY/WX    TMP DP  RH WIND       PRES   REMARKS
DEFIANCE       MOSUNNY  N/A N/A N/A NW7       30.24F
FINDLAY        PTSUNNY   55  39  54 SW6       30.23S
TOLEDO EXPRESS MOSUNNY   54  39  57 NW12      30.23S
TOLEDO METCALF MOSUNNY   55  38  52 W12       30.23S
LIMA           MOSUNNY   53  39  59 NW9       30.24S
$$

OHZ009>014-019>023-028>033-038-089-221700-
   NORTHEAST OHIO

CITY           SKY/WX    TMP DP  RH WIND       PRES   REMARKS
CLE-HOPKINS    CLOUDY    53  41  63 NW10      30.21R
CLE-LAKEFRONT  CLOUDY    55  42  61 MISG      30.18R
CUY CO. ARPT   CLOUDY    54  43  66 NW12      30.18R
LORAIN-ELYRIA  CLOUDY    55  41  59 NW10      30.21R
ASHTABULA      CLOUDY    53  44  71 NW6       30.16R
AKRON-CANTON   CLOUDY    55  40  56 NW12      30.18R
WOOSTER        CLOUDY    53  43  68 W10       30.20R
MANSFIELD      CLOUDY    50  39  66 W6        30.22R
YOUNGSTOWN     CLOUDY    53  42  66 NW10      30.15R
$$

OHZ042-051>053-060>062-070>072-077>081-221700-
  SOUTHWEST OHIO

CITY           SKY/WX    TMP DP  RH WIND       PRES   REMARKS
CINC-COVINGTON MOSUNNY   57  41  55 N5        30.24S
CINC-LUNKEN    MOSUNNY   58  44  60 NW9       30.26R
HAMILTON       PTSUNNY   58  45  62 N6        30.27S
DAYTON         MOSUNNY   56  40  55 N6        30.26R
WRIGHT-PAT AFB SUNNY     55  39  54 VRB3      30.24S
DAYTON GENERAL MOSUNNY   55  41  59 VRB3      30.24R
WILMINGTON     PTSUNNY   57  42  57 N7        30.23R
$$

OHZ036-037-039>041-045>050-054>059-063>069-073>076-082>088-221700-
  CENTRAL AND SOUTHEAST OHIO

CITY           SKY/WX    TMP DP  RH WIND       PRES   REMARKS
COLUMBUS       PTSUNNY   56  39  53 N7        30.22R
OSU AIRPORT    PTSUNNY   54  39  57 NW12      30.23R
BOLTON FIELD   PTSUNNY   54  41  62 NW7       30.23R
RICKENBACK AFB PTSUNNY   55  39  54 NW5       30.22R
NEWARK         CLOUDY    55  42  61 NW8       30.21R
MARION         PTSUNNY   53  38  56 N10       30.24R
LANCASTER      MOSUNNY   57  41  55 W5        30.22R
ZANESVILLE     CLOUDY    56  44  64 VRB7      30.20R
NEW PHILLY     PTSUNNY   57  41  55 W12       30.19R
$$


USA.gov is the U.S. government's official web portal to all federal, state and local government web resources and services.